[[{"header":{"parameterUnit":"m.s-1","parameterCategory":2,"la1":30.2991,"la2":30.254,"lo1":-89.0895,"lo2":-89.0444,"dy":0.0017,"dx":0.0017,"nx":28,"ny":28,"refTime":"2025-04-17T21:00:00:Z","depth":"0","parameterNumber":2,"parameterNumberName":"U-component_of_CURRENTS"},"data":[0,0,0,0,0,0,0,0,0,0,0,0,0,0,0,0,0,0,0,0,0,0,0,0,0,0,0,0,0,0,0,0,0,0,0,0,0,0,0,0,0,0,0,0,0,0,0,0,0,0,0,0,0,0,0,0,0,0,-0.2637,-0.2638,0,-0.2685,-0.2685,-0.2686,-0.2655,-0.2654,-0.2653,-0.2652,-0.2624,-0.2624,-0.2624,0,0,0,0,0,0,0,0,0,0,0,0,0,-0.2509,-0.2512,-0.2637,-0.2638,-0.2639,-0.2685,-0.2685,-0.2686,-0.2655,-0.2654,-0.2652,-0.2651,-0.2624,-0.2624,-0.2624,0,0,0,0,0,0,0,0,0,0,0,0,0,-0.2559,-0.2512,-0.2637,-0.2632,-0.2632,-0.2685,-0.2685,-0.2686,-0.2656,-0.2654,-0.2652,-0.2651,-0.2624,-0.2624,-0.2624,-0.2661,0,0,-0.2626,-0.2626,0,0,0,0,0,0,0,0,-0.2556,-0.2563,-0.2631,-0.2632,-0.2632,-0.2665,-0.263,-0.2675,-0.2656,-0.2643,-0.2652,-0.265,-0.2634,-0.2633,-0.2643,-0.266,-0.2659,-0.2626,-0.2626,-0.2626,-0.2627,0,0,0,0,0,0,0,-0.2553,-0.2561,-0.2653,-0.2633,-0.2633,-0.2624,-0.2628,-0.2639,-0.2644,-0.2644,-0.2643,-0.2654,-0.2633,-0.2642,-0.2642,-0.2658,-0.2626,-0.2626,-0.2627,-0.2627,-0.2697,-0.2698,0,0,0,0,0,0,-0.2556,-0.2558,-0.2651,-0.2655,-0.2593,-0.2628,-0.2633,-0.2654,-0.2645,-0.2644,-0.2655,-0.2652,-0.2642,-0.2641,-0.264,-0.2666,-0.2626,-0.2627,-0.2627,-0.2695,-0.2697,-0.2699,0,0,0,0,0,0,-0.2553,-0.2565,-0.2649,-0.2609,-0.2619,-0.2632,-0.2655,-0.2656,-0.2658,-0.2655,-0.2651,-0.2657,-0.2641,-0.264,-0.2654,-0.2665,-0.2627,-0.2627,-0.2694,-0.2696,-0.2698,-0.2728,0,0,0,0,0,0,-0.255,-0.2563,-0.2575,-0.261,-0.2622,-0.2686,-0.2657,-0.2658,-0.267,-0.2666,-0.2656,-0.2652,-0.264,-0.2654,-0.2655,-0.2665,-0.2628,-0.2691,-0.2695,-0.2697,-0.2725,-0.2732,-0.2737,0,0,0,0,0,-0.2545,-0.2572,-0.2575,-0.2586,-0.2639,-0.2688,-0.2694,-0.2693,-0.2672,-0.2686,-0.2677,-0.2652,-0.2673,-0.2656,-0.2657,-0.2667,-0.269,-0.2694,-0.2697,-0.2723,-0.273,-0.2737,0,0,0,0,0,0,-0.2519,-0.2573,-0.2577,-0.2617,-0.2652,-0.2684,-0.2696,-0.2697,-0.2704,-0.2693,-0.2675,-0.2672,-0.269,-0.2683,-0.2665,-0.2699,-0.2677,-0.2681,-0.2696,-0.2703,-0.2709,-0.2698,-0.2628,0,0,0,0,0,-0.2522,-0.2554,-0.2603,-0.2632,-0.2651,-0.2673,-0.2689,-0.2696,-0.2711,-0.2711,-0.2706,-0.2703,-0.271,-0.2708,-0.2718,-0.2738,-0.2719,-0.2746,-0.2752,-0.2757,-0.2751,-0.2734,-0.2737,-0.2711,-0.2711,-0.2711,0,0,-0.2518,-0.2552,-0.2568,-0.2628,-0.265,-0.2689,-0.2677,-0.2711,-0.2733,-0.2708,-0.2726,-0.2726,-0.2723,-0.2745,-0.2751,-0.2735,-0.276,-0.2761,-0.2765,-0.2756,-0.2738,-0.274,-0.2742,-0.2713,-0.2713,-0.2712,0,0,-0.2532,-0.256,-0.2592,-0.263,-0.2678,-0.2699,-0.271,-0.2749,-0.2753,-0.2784,-0.2767,-0.2772,-0.2789,-0.2784,-0.2783,-0.2829,-0.2795,-0.2837,-0.2847,-0.2832,-0.2833,-0.2833,-0.2826,-0.2826,-0.2833,-0.2833,-0.2833,0,-0.252,-0.2572,-0.2607,-0.2653,-0.2678,-0.2703,-0.274,-0.2763,-0.2799,-0.2802,-0.2792,-0.2809,-0.2805,-0.2816,-0.2832,-0.2838,-0.2827,-0.2817,-0.2836,-0.2836,-0.2836,-0.2829,-0.2828,-0.2835,-0.2835,-0.2834,-0.2834,0,-0.2563,-0.2603,-0.2627,-0.2689,-0.2724,-0.2762,-0.2805,-0.2829,-0.2832,-0.2845,-0.2861,-0.286,-0.286,-0.2868,-0.2861,-0.2867,-0.286,-0.2847,-0.281,-0.284,-0.2831,-0.283,-0.2838,-0.2837,-0.2836,-0.2836,0,0,-0.2526,-0.2634,-0.2638,-0.267,-0.2744,-0.2776,-0.282,-0.2861,-0.2874,-0.2896,-0.2902,-0.2916,-0.2903,-0.2902,-0.2894,-0.2881,-0.2878,-0.2865,-0.2863,-0.2844,-0.2849,-0.2788,-0.2781,-0.2864,-0.2864,-0.2863,-0.2846,0,-0.2538,-0.2621,-0.2671,-0.2733,-0.2774,-0.2818,-0.2856,-0.2894,-0.2912,-0.293,-0.2922,-0.293,-0.292,-0.2915,-0.2903,-0.2888,-0.2874,-0.2884,-0.2835,-0.2834,-0.2764,-0.2777,-0.2667,-0.2637,-0.2845,-0.2844,-0.2844,0,-0.2547,-0.2605,-0.2671,-0.2754,-0.2774,-0.2812,-0.286,-0.29,-0.2936,-0.2947,-0.2951,-0.2948,-0.2945,-0.2924,-0.29,-0.2907,-0.2879,-0.2861,-0.2859,-0.2786,-0.2769,-0.264,-0.2626,-0.2613,-0.2842,-0.2842,-0.2842,0,-0.249,-0.2593,-0.2639,-0.2672,-0.2776,-0.2798,-0.2841,-0.2892,-0.2922,-0.2949,-0.2963,-0.296,-0.2954,-0.2925,-0.2895,-0.2895,-0.2859,-0.2852,-0.2772,-0.2769,-0.2655,-0.2641,-0.2604,-0.282,-0.282,-0.282,-0.282,0,-0.2474,-0.2508,-0.2616,-0.2645,-0.269,-0.2767,-0.2806,-0.2848,-0.2904,-0.2929,-0.2957,-0.2965,-0.2951,-0.2933,-0.29,-0.2831,-0.286,-0.277,-0.2754,-0.2666,-0.2654,-0.262,-0.2644,-0.2819,-0.2819,-0.2819,-0.282,0,-0.2398,-0.2477,-0.2534,-0.2638,-0.2667,-0.2692,-0.279,-0.2816,-0.2882,-0.2913,-0.2922,-0.2965,-0.2938,-0.2919,-0.2873,-0.2829,-0.2727,-0.274,-0.2644,-0.2616,-0.2516,-0.2546,-0.2493,-0.2421,-0.2646,-0.2644,-0.2643,0,-0.2367,-0.239,-0.25,-0.2524,-0.2568,-0.2629,-0.2669,-0.2777,-0.2813,-0.2903,-0.2906,-0.2915,-0.2879,-0.281,-0.2736,-0.2658,-0.2658,-0.2525,-0.2496,-0.2488,-0.2511,-0.2537,-0.2483,-0.2371,-0.2368,-0.2365,-0.2363,0,-0.2279,-0.2317,-0.2359,-0.2421,-0.2468,-0.253,-0.2599,-0.2639,-0.2754,-0.2785,-0.2805,-0.2784,-0.2741,-0.2614,-0.2538,-0.2475,-0.2466,-0.2462,-0.2469,-0.2301,-0.2311,-0.2241,-0.2427,-0.2337,-0.2339,-0.2341,-0.2343,-0.2344,-0.2179,-0.2182,-0.2232,-0.2277,-0.2338,-0.2382,-0.2382,-0.2472,-0.2508,-0.2517,-0.2624,-0.2542,-0.2515,-0.2377,-0.2329,-0.2219,-0.2272,-0.2155,-0.2197,-0.2229,-0.2137,-0.2273,-0.2155,-0.2156,-0.2157,-0.2159,-0.216,0,-0.2023,-0.2042,-0.208,-0.2125,-0.2127,-0.2218,-0.2284,-0.2238,-0.222,-0.2267,-0.2254,-0.2223,-0.2137,-0.2127,-0.2064,-0.1985,-0.1938,-0.195,-0.1961,-0.1919,-0.2036,-0.1999,-0.1821,-0.1821,-0.1821,-0.1821,-0.1821,-0.1821,-0.1938,-0.1903,-0.1932,-0.1881,-0.1915,-0.1857,-0.1857,-0.1804,-0.1786,-0.1702,-0.1695,-0.1716,-0.1826,-0.2058,-0.1992,-0.1901,-0.1865,-0.1813,-0.1846,-0.1945,-0.1968,-0.1989,-0.1958,-0.1776,-0.1776,-0.1646,-0.1646,-0.1645]},{"header":{"parameterUnit":"m.s-1","parameterCategory":2,"la1":30.2991,"la2":30.254,"lo1":-89.0895,"lo2":-89.0444,"dy":0.0017,"dx":0.0017,"nx":28,"ny":28,"refTime":"2025-04-17T21:00:00:Z","depth":"0","parameterNumber":3,"parameterNumberName":"V-component_of_CURRENTS"},"data":[0,0,0,0,0,0,0,0,0,0,0,0,0,0,0,0,0,0,0,0,0,0,0,0,0,0,0,0,0,0,0,0,0,0,0,0,0,0,0,0,0,0,0,0,0,0,0,0,0,0,0,0,0,0,0,0,0,0,-0.0044,-0.0044,0,0.005,0.0051,0.0053,0.0121,0.0122,0.0122,0.0122,0.0259,0.0262,0.0265,0,0,0,0,0,0,0,0,0,0,0,0,0,-0.0105,-0.0104,-0.0044,-0.0043,-0.0042,0.005,0.0052,0.0053,0.0121,0.0122,0.0122,0.0123,0.0258,0.0261,0.0265,0,0,0,0,0,0,0,0,0,0,0,0,0,-0.0049,-0.0104,-0.0045,0.0001,0.0006,0.005,0.0052,0.0053,0.0121,0.0122,0.0122,0.0123,0.0256,0.0261,0.0266,0.0285,0,0,0.0281,0.0283,0,0,0,0,0,0,0,0,-0.0053,-0.0047,-0.0007,-0.0002,0.0004,0.0073,0.008,0.0132,0.0121,0.008,0.0122,0.0123,0.0199,0.0208,0.0227,0.0291,0.0297,0.0281,0.0284,0.0286,0.0288,0,0,0,0,0,0,0,-0.0057,-0.005,-0.0005,-0.0006,0.0001,0.0038,0.0046,0.0091,0.0137,0.0083,0.0088,0.0095,0.0202,0.0222,0.0231,0.0299,0.0281,0.0285,0.0288,0.029,0.0395,0.0395,0,0,0,0,0,0,-0.0076,-0.0054,-0.0008,-0.0002,-0.0026,0.0038,0.0047,0.0052,0.0136,0.0148,0.0094,0.0098,0.0213,0.0225,0.0236,0.0261,0.0286,0.0291,0.0294,0.0395,0.0395,0.0395,0,0,0,0,0,0,-0.0078,-0.0073,-0.0012,-0.0027,-0.0017,0.0038,0.0043,0.0053,0.0073,0.0143,0.0157,0.0103,0.0214,0.0229,0.0272,0.0267,0.0293,0.0298,0.0396,0.0395,0.0395,0.0313,0,0,0,0,0,0,-0.008,-0.0075,-0.0081,-0.0029,-0.0017,0.0002,0.0042,0.0055,0.0076,0.0081,0.0155,0.0169,0.0216,0.0265,0.0277,0.0274,0.0301,0.0396,0.0395,0.0395,0.0316,0.031,0.0305,0,0,0,0,0,-0.0083,-0.0099,-0.0082,-0.0076,-0.0027,0.0001,0.0011,0.0054,0.0075,0.0076,0.013,0.0166,0.0272,0.0268,0.0283,0.0282,0.0396,0.0396,0.0395,0.0318,0.0311,0.0305,0,0,0,0,0,0,-0.0132,-0.0093,-0.0073,-0.0077,-0.0045,0.0012,0.0014,0.0047,0.009,0.0097,0.0166,0.0183,0.0218,0.0261,0.0255,0.0311,0.0339,0.0342,0.0276,0.027,0.0264,0.0252,0.0305,0,0,0,0,0,-0.0147,-0.0147,-0.0101,-0.0105,-0.0093,-0.004,-0.0023,0.0006,0.0052,0.0072,0.0124,0.018,0.0228,0.0256,0.0302,0.0333,0.038,0.0342,0.0337,0.0332,0.0332,0.0388,0.0387,0.0394,0.0394,0.0394,0,0,-0.0167,-0.0146,-0.0146,-0.0116,-0.0086,-0.0079,-0.0028,-0.0011,0.0001,0.008,0.0108,0.0161,0.0231,0.0265,0.0285,0.0301,0.0355,0.0331,0.0326,0.033,0.0387,0.0387,0.0386,0.0394,0.0394,0.0394,0,0,-0.0214,-0.019,-0.0207,-0.0184,-0.015,-0.0114,-0.0114,-0.0061,-0.0033,0.0001,0.0061,0.011,0.0179,0.0231,0.0267,0.026,0.032,0.0271,0.0239,0.0292,0.0292,0.0293,0.0349,0.0356,0.0272,0.0272,0.0272,0,-0.0243,-0.0253,-0.0208,-0.0215,-0.0204,-0.0137,-0.0149,-0.011,-0.0049,-0.0024,-0.0003,0.0109,0.0165,0.0222,0.022,0.0248,0.0288,0.0256,0.0284,0.0286,0.0288,0.0346,0.0354,0.0268,0.0268,0.0269,0.0269,0,-0.0297,-0.0303,-0.0312,-0.0297,-0.0277,-0.0277,-0.0219,-0.0194,-0.015,-0.0101,-0.0041,0.0041,0.0111,0.0134,0.0177,0.0219,0.0246,0.0266,0.0297,0.0282,0.0344,0.0354,0.0262,0.0264,0.0265,0.0266,0,0,-0.0368,-0.0355,-0.0358,-0.0366,-0.0321,-0.0313,-0.0289,-0.0245,-0.0225,-0.0155,-0.0119,-0.003,0.0025,0.0069,0.0134,0.0184,0.0232,0.0224,0.0228,0.0272,0.0353,0.0416,0.0433,0.0253,0.0254,0.0255,0.039,0,-0.0426,-0.0469,-0.0434,-0.0462,-0.0478,-0.0407,-0.0391,-0.0336,-0.0274,-0.0221,-0.0118,-0.006,-0.0002,0.0033,0.0093,0.0199,0.0254,0.0194,0.0368,0.0374,0.0425,0.0445,0.0514,0.0644,0.04,0.0402,0.0403,0,-0.0492,-0.0512,-0.0557,-0.0548,-0.0545,-0.0543,-0.0497,-0.047,-0.0369,-0.0317,-0.023,-0.0142,-0.004,0.0002,0.0177,0.0134,0.0234,0.0315,0.0323,0.0418,0.0455,0.0622,0.0671,0.0874,0.0419,0.0417,0.0416,0,-0.0577,-0.0594,-0.0635,-0.0634,-0.0611,-0.0609,-0.0585,-0.0504,-0.0478,-0.0372,-0.0333,-0.0198,-0.0122,0.0013,0.0197,0.0183,0.0391,0.0395,0.0549,0.0555,0.0668,0.0681,0.093,0.0511,0.0511,0.051,0.051,0,-0.0658,-0.0688,-0.068,-0.0706,-0.0745,-0.069,-0.0698,-0.0648,-0.0567,-0.0527,-0.0389,-0.0314,-0.0118,0.0036,0.0185,0.0411,0.0388,0.0556,0.0598,0.0641,0.0651,0.0876,0.093,0.0516,0.0514,0.0513,0.0513,0,-0.0747,-0.0741,-0.0793,-0.0791,-0.0792,-0.0818,-0.0787,-0.0783,-0.069,-0.0631,-0.0598,-0.0399,-0.0185,0.0026,0.0268,0.0404,0.0731,0.0685,0.0727,0.0772,0.1087,0.1131,0.1382,0.1492,0.087,0.0873,0.0875,0,-0.0798,-0.0837,-0.0872,-0.0908,-0.0912,-0.0932,-0.0943,-0.0864,-0.0838,-0.0668,-0.0638,-0.0414,-0.0216,0.0173,0.0448,0.0739,0.0862,0.0954,0.0941,0.1134,0.1215,0.1233,0.1308,0.1062,0.1065,0.1068,0.107,0,-0.0897,-0.0905,-0.0946,-0.1026,-0.1059,-0.1081,-0.1072,-0.1066,-0.0945,-0.0827,-0.0628,-0.0449,-0.0061,0.0332,0.0697,0.0865,0.1106,0.1019,0.122,0.1392,0.1429,0.1544,0.0939,0.1095,0.1092,0.1091,0.1089,0.1088,-0.0959,-0.1014,-0.1067,-0.1137,-0.1181,-0.1199,-0.1172,-0.1105,-0.1,-0.0731,-0.0609,-0.0207,0.0253,0.0802,0.0985,0.1416,0.1329,0.1552,0.1592,0.1595,0.1703,0.1151,0.1349,0.1348,0.1347,0.1346,0.1345,0,-0.103,-0.1083,-0.1169,-0.123,-0.1281,-0.1273,-0.1227,-0.1103,-0.0916,-0.0623,-0.034,0.0305,0.0808,0.1232,0.1769,0.1995,0.2018,0.2101,0.2162,0.2211,0.1749,0.1763,0.2058,0.2058,0.2058,0.2058,0.2058,0.2057,-0.1066,-0.1161,-0.1205,-0.1297,-0.1328,-0.1289,-0.1231,-0.097,-0.0699,-0.0163,0.0299,0.0617,0.1155,0.1986,0.2503,0.2535,0.2723,0.2683,0.2775,0.2479,0.2431,0.2385,0.2417,0.2845,0.2846,0.3246,0.325,0.3254]}],[{"header":{"parameterUnit":"m.s-1","parameterCategory":2,"la1":30.2991,"la2":30.254,"lo1":-89.0895,"lo2":-89.0444,"dy":0.0017,"dx":0.0017,"nx":28,"ny":28,"refTime":"2025-04-17T21:00:00:Z","depth":"2","parameterNumber":2,"parameterNumberName":"U-component_of_CURRENTS"},"data":[0,0,0,0,0,0,0,0,0,0,0,0,0,0,0,0,0,0,0,0,0,0,0,0,0,0,0,0,0,0,0,0,0,0,0,0,0,0,0,0,0,0,0,0,0,0,0,0,0,0,0,0,0,0,0,0,0,0,-0.2527,-0.2528,0,-0.2574,-0.2574,-0.2574,-0.2549,-0.2548,-0.2547,-0.2546,-0.2524,-0.2525,-0.2525,0,0,0,0,0,0,0,0,0,0,0,0,0,-0.2408,-0.241,-0.2527,-0.2528,-0.2529,-0.2574,-0.2574,-0.2574,-0.2549,-0.2548,-0.2547,-0.2546,-0.2524,-0.2525,-0.2525,0,0,0,0,0,0,0,0,0,0,0,0,0,-0.2455,-0.2411,-0.2527,-0.2524,-0.2525,-0.2574,-0.2574,-0.2575,-0.255,-0.2548,-0.2547,-0.2545,-0.2524,-0.2524,-0.2525,-0.2558,0,0,-0.2527,-0.2527,0,0,0,0,0,0,0,0,-0.2452,-0.2459,-0.2524,-0.2524,-0.2525,-0.2557,-0.2524,-0.2567,-0.255,-0.2537,-0.2546,-0.2544,-0.2532,-0.2532,-0.254,-0.2557,-0.2556,-0.2527,-0.2527,-0.2527,-0.2527,0,0,0,0,0,0,0,-0.2449,-0.2457,-0.2543,-0.2525,-0.2526,-0.2518,-0.2522,-0.2532,-0.2538,-0.2538,-0.2537,-0.2547,-0.2531,-0.254,-0.2539,-0.2555,-0.2527,-0.2527,-0.2527,-0.2527,-0.2598,-0.2599,0,0,0,0,0,0,-0.2452,-0.2454,-0.2541,-0.2544,-0.2488,-0.2521,-0.2526,-0.2546,-0.254,-0.2539,-0.2549,-0.2546,-0.254,-0.2539,-0.2538,-0.2567,-0.2527,-0.2528,-0.2528,-0.2596,-0.2598,-0.26,0,0,0,0,0,0,-0.245,-0.246,-0.2539,-0.2502,-0.2512,-0.2525,-0.2547,-0.2547,-0.2552,-0.2549,-0.2546,-0.2553,-0.2539,-0.2538,-0.2554,-0.2566,-0.2528,-0.2528,-0.2595,-0.2597,-0.2599,-0.2631,0,0,0,0,0,0,-0.2446,-0.2459,-0.247,-0.2503,-0.2514,-0.2575,-0.2549,-0.2549,-0.2563,-0.256,-0.2552,-0.2549,-0.2537,-0.2554,-0.2555,-0.2566,-0.2529,-0.2593,-0.2596,-0.2598,-0.2628,-0.2634,-0.2639,0,0,0,0,0,-0.2442,-0.2467,-0.247,-0.248,-0.253,-0.2577,-0.2582,-0.2583,-0.2565,-0.2579,-0.2572,-0.2549,-0.2572,-0.2556,-0.2556,-0.2568,-0.2591,-0.2595,-0.2598,-0.2625,-0.2633,-0.2639,0,0,0,0,0,0,-0.2417,-0.2468,-0.2472,-0.251,-0.2543,-0.2573,-0.2586,-0.2588,-0.2596,-0.2587,-0.2571,-0.2569,-0.2589,-0.2582,-0.2564,-0.26,-0.2578,-0.2582,-0.2598,-0.2605,-0.2611,-0.2601,-0.2529,0,0,0,0,0,-0.2421,-0.2451,-0.2496,-0.2524,-0.2543,-0.2564,-0.258,-0.2588,-0.2603,-0.2604,-0.2601,-0.26,-0.2609,-0.2608,-0.2618,-0.2638,-0.2619,-0.2648,-0.2654,-0.2658,-0.2654,-0.2638,-0.2641,-0.2612,-0.2612,-0.2611,0,0,-0.2417,-0.2449,-0.2464,-0.2521,-0.2541,-0.258,-0.2569,-0.2603,-0.2625,-0.2602,-0.2623,-0.2624,-0.2621,-0.2644,-0.2652,-0.2635,-0.2662,-0.2663,-0.2667,-0.2659,-0.2642,-0.2644,-0.2646,-0.2614,-0.2614,-0.2613,0,0,-0.243,-0.2457,-0.2487,-0.2523,-0.257,-0.259,-0.2602,-0.2641,-0.2646,-0.2678,-0.2664,-0.267,-0.2688,-0.2685,-0.2684,-0.273,-0.2697,-0.2739,-0.2751,-0.2736,-0.2738,-0.2739,-0.2731,-0.2731,-0.2735,-0.2735,-0.2735,0,-0.242,-0.2469,-0.2502,-0.2545,-0.2571,-0.2596,-0.2632,-0.2655,-0.2691,-0.2696,-0.2688,-0.2708,-0.2704,-0.2718,-0.2734,-0.274,-0.2729,-0.272,-0.2741,-0.2741,-0.2742,-0.2733,-0.2732,-0.2737,-0.2737,-0.2737,-0.2736,0,-0.246,-0.2499,-0.2522,-0.2581,-0.2616,-0.2653,-0.2695,-0.2721,-0.2726,-0.274,-0.2759,-0.2759,-0.2762,-0.277,-0.2764,-0.2773,-0.2765,-0.2752,-0.2716,-0.2746,-0.2736,-0.2735,-0.274,-0.2739,-0.2739,-0.2738,0,0,-0.2427,-0.2529,-0.2533,-0.2565,-0.2637,-0.2668,-0.2713,-0.2754,-0.2769,-0.2793,-0.2802,-0.2818,-0.2807,-0.2807,-0.28,-0.2788,-0.2787,-0.2772,-0.2771,-0.2751,-0.2759,-0.2698,-0.2691,-0.2774,-0.2774,-0.2773,-0.2754,0,-0.2439,-0.2519,-0.2567,-0.2627,-0.2668,-0.2711,-0.275,-0.2789,-0.2808,-0.2828,-0.2823,-0.2834,-0.2825,-0.2822,-0.2812,-0.2797,-0.2783,-0.2793,-0.2744,-0.2743,-0.2673,-0.2687,-0.2469,-0.2429,-0.2753,-0.2753,-0.2752,0,-0.2448,-0.2504,-0.257,-0.265,-0.267,-0.2708,-0.2758,-0.2799,-0.2836,-0.285,-0.2856,-0.2856,-0.2854,-0.2835,-0.2811,-0.2818,-0.2791,-0.2772,-0.2771,-0.2697,-0.2679,-0.245,-0.2414,-0.275,-0.275,-0.275,-0.275,0,-0.2396,-0.2495,-0.2542,-0.2574,-0.2674,-0.2699,-0.2741,-0.2794,-0.2825,-0.2855,-0.2871,-0.287,-0.2866,-0.2838,-0.2808,-0.2809,-0.2772,-0.2765,-0.2684,-0.2681,-0.2475,-0.2453,-0.2734,-0.2734,-0.2734,-0.2735,-0.2735,0,-0.2383,-0.2417,-0.2521,-0.255,-0.2596,-0.2671,-0.2713,-0.2756,-0.2813,-0.2839,-0.2868,-0.2876,-0.2864,-0.2847,-0.2814,-0.2744,-0.2774,-0.2683,-0.2666,-0.2484,-0.2464,-0.2725,-0.2724,-0.2734,-0.2734,-0.2734,-0.2734,0,-0.2313,-0.2388,-0.2445,-0.2547,-0.2576,-0.2603,-0.27,-0.2728,-0.2794,-0.2828,-0.2837,-0.2879,-0.2851,-0.2833,-0.2787,-0.2742,-0.2688,-0.2653,-0.2447,-0.2406,-0.2608,-0.2609,-0.2562,-0.256,-0.2557,-0.2556,-0.2554,0,-0.2285,-0.2308,-0.2417,-0.2441,-0.2484,-0.2547,-0.2586,-0.2692,-0.2728,-0.2818,-0.2821,-0.283,-0.279,-0.2719,-0.2629,-0.2546,-0.2629,-0.2324,-0.2282,-0.2599,-0.2588,-0.2593,-0.2597,-0.2029,-0.2023,-0.2018,-0.2015,0,-0.2205,-0.2243,-0.2285,-0.2346,-0.2393,-0.2454,-0.2522,-0.256,-0.2672,-0.2702,-0.2719,-0.2694,-0.2633,-0.2437,-0.2353,-0.2281,-0.2322,-0.223,-0.2587,-0.2118,-0.2097,-0.2087,-0.2108,-0.1974,-0.1978,-0.1981,-0.1983,-0.1985,-0.2113,-0.2118,-0.2168,-0.2211,-0.2271,-0.2313,-0.2308,-0.2391,-0.2423,-0.2412,-0.2517,-0.2382,-0.2357,-0.2081,-0.1995,-0.1919,-0.2075,-0.1978,-0.1992,-0.201,-0.1963,-0.1941,-0.178,-0.1783,-0.1785,-0.1787,-0.1789,0,-0.1964,-0.1987,-0.2024,-0.2066,-0.2062,-0.2156,-0.2214,-0.2155,-0.2123,-0.2147,-0.211,-0.184,-0.1731,-0.1709,-0.1522,-0.1515,-0.1488,-0.1464,-0.1417,-0.1458,-0.1494,-0.1421,-0.1094,-0.1092,-0.1091,-0.1089,0,0,-0.1882,-0.1849,-0.1878,-0.1821,-0.1854,-0.1787,-0.1783,-0.172,-0.1684,-0.1543,-0.146,-0.1579,-0.1614,-0.1331,-0.1296,-0.1158,-0.1289,-0.11,-0.1651,-0.1632,-0.1666,-0.178,-0.1713,0,0,0,0,0]},{"header":{"parameterUnit":"m.s-1","parameterCategory":2,"la1":30.2991,"la2":30.254,"lo1":-89.0895,"lo2":-89.0444,"dy":0.0017,"dx":0.0017,"nx":28,"ny":28,"refTime":"2025-04-17T21:00:00:Z","depth":"2","parameterNumber":3,"parameterNumberName":"V-component_of_CURRENTS"},"data":[0,0,0,0,0,0,0,0,0,0,0,0,0,0,0,0,0,0,0,0,0,0,0,0,0,0,0,0,0,0,0,0,0,0,0,0,0,0,0,0,0,0,0,0,0,0,0,0,0,0,0,0,0,0,0,0,0,0,-0.0126,-0.0126,0,-0.0036,-0.0035,-0.0034,0.0034,0.0034,0.0035,0.0035,0.0167,0.017,0.0173,0,0,0,0,0,0,0,0,0,0,0,0,0,-0.018,-0.018,-0.0126,-0.0125,-0.0125,-0.0037,-0.0035,-0.0034,0.0034,0.0034,0.0035,0.0035,0.0166,0.017,0.0174,0,0,0,0,0,0,0,0,0,0,0,0,0,-0.0129,-0.018,-0.0127,-0.0082,-0.0077,-0.0037,-0.0035,-0.0033,0.0034,0.0034,0.0035,0.0036,0.0165,0.017,0.0174,0.019,0,0,0.0188,0.019,0,0,0,0,0,0,0,0,-0.0132,-0.0127,-0.0089,-0.0085,-0.0079,-0.0014,-0.0006,0.0043,0.0034,-0.0006,0.0035,0.0036,0.0109,0.0118,0.0136,0.0196,0.0202,0.0189,0.0192,0.0194,0.0195,0,0,0,0,0,0,0,-0.0136,-0.013,-0.0089,-0.0088,-0.0082,-0.0046,-0.0038,0.0004,0.0049,-0.0003,0.0002,0.0009,0.0112,0.0131,0.014,0.0204,0.0189,0.0193,0.0196,0.0198,0.0299,0.0299,0,0,0,0,0,0,-0.0155,-0.0134,-0.0092,-0.0086,-0.0107,-0.0046,-0.0037,-0.0034,0.0048,0.006,0.0008,0.0011,0.0123,0.0134,0.0145,0.0172,0.0194,0.0198,0.0201,0.0299,0.0299,0.0299,0,0,0,0,0,0,-0.0156,-0.0152,-0.0095,-0.0109,-0.01,-0.0046,-0.0043,-0.0032,-0.0012,0.0055,0.0069,0.0017,0.0124,0.0138,0.0181,0.0177,0.02,0.0204,0.03,0.0299,0.0299,0.0224,0,0,0,0,0,0,-0.0158,-0.0153,-0.016,-0.0111,-0.01,-0.0082,-0.0043,-0.0031,-0.001,-0.0005,0.0067,0.008,0.0126,0.0173,0.0185,0.0184,0.0208,0.03,0.0299,0.0299,0.0226,0.0221,0.0216,0,0,0,0,0,-0.016,-0.0177,-0.016,-0.0155,-0.011,-0.0083,-0.0074,-0.0032,-0.0011,-0.001,0.0043,0.0078,0.0181,0.0177,0.0191,0.0191,0.03,0.03,0.0299,0.0229,0.0222,0.0217,0,0,0,0,0,0,-0.0207,-0.0171,-0.0151,-0.0157,-0.0126,-0.0073,-0.007,-0.0039,0.0004,0.0011,0.0078,0.0094,0.0129,0.017,0.0164,0.022,0.0246,0.0248,0.0187,0.0182,0.0177,0.0166,0.0212,0,0,0,0,0,-0.0221,-0.0222,-0.0179,-0.0184,-0.0173,-0.0121,-0.0106,-0.0077,-0.0033,-0.0013,0.0037,0.0092,0.0139,0.0167,0.0211,0.0242,0.0287,0.0251,0.0246,0.0242,0.0243,0.0301,0.0302,0.0298,0.0298,0.0298,0,0,-0.0241,-0.0222,-0.0222,-0.0194,-0.0166,-0.0158,-0.011,-0.0093,-0.0081,-0.0006,0.0024,0.0074,0.0142,0.0177,0.0196,0.0211,0.0267,0.0242,0.0237,0.0241,0.0301,0.0302,0.0302,0.0298,0.0298,0.0298,0,0,-0.0286,-0.0264,-0.028,-0.0259,-0.0226,-0.0192,-0.0191,-0.014,-0.0112,-0.0079,-0.002,0.0029,0.0095,0.0147,0.0181,0.0176,0.0235,0.0188,0.016,0.0215,0.0216,0.0217,0.0272,0.0279,0.0189,0.0189,0.0189,0,-0.0314,-0.0323,-0.0281,-0.0288,-0.0277,-0.0212,-0.0223,-0.0185,-0.0126,-0.01,-0.0082,0.003,0.0082,0.0141,0.014,0.0166,0.0206,0.0174,0.0208,0.0211,0.0213,0.0269,0.0277,0.0185,0.0185,0.0186,0.0186,0,-0.0365,-0.037,-0.0379,-0.0363,-0.0344,-0.0344,-0.0288,-0.0262,-0.0219,-0.0171,-0.011,-0.0032,0.0037,0.0059,0.01,0.0146,0.0171,0.019,0.0219,0.0209,0.0269,0.0279,0.018,0.0181,0.0182,0.0183,0,0,-0.0434,-0.042,-0.0422,-0.0427,-0.0384,-0.0376,-0.0351,-0.0306,-0.0284,-0.0216,-0.0177,-0.0092,-0.0039,0.0004,0.0066,0.0118,0.0169,0.0155,0.016,0.0202,0.0293,0.0346,0.0363,0.0191,0.0193,0.0194,0.0326,0,-0.0488,-0.0526,-0.0493,-0.0516,-0.053,-0.0461,-0.0443,-0.0389,-0.0327,-0.0273,-0.0173,-0.0115,-0.0062,-0.0027,0.0033,0.0137,0.0192,0.0131,0.0304,0.0309,0.0352,0.0376,0.031,0.0425,0.0336,0.0338,0.0339,0,-0.055,-0.0567,-0.0607,-0.0594,-0.0591,-0.0587,-0.0538,-0.0511,-0.041,-0.0359,-0.0272,-0.0187,-0.0086,-0.0048,0.0125,0.0082,0.0179,0.0258,0.0265,0.035,0.0382,0.0424,0.0448,0.0357,0.0355,0.0354,0.0353,0,-0.063,-0.0643,-0.068,-0.0677,-0.0651,-0.0647,-0.0623,-0.0541,-0.0513,-0.0408,-0.0367,-0.0234,-0.0161,-0.0028,0.0148,0.0135,0.0338,0.0343,0.0485,0.049,0.0488,0.0491,0.0461,0.0461,0.046,0.046,0.046,0,-0.0706,-0.0732,-0.0722,-0.0745,-0.0778,-0.0723,-0.0727,-0.0677,-0.0595,-0.0554,-0.0419,-0.0345,-0.0153,-0.0005,0.0139,0.0355,0.0339,0.0493,0.0534,0.0461,0.0459,0.0441,0.0436,0.0465,0.0464,0.0463,0.0462,0,-0.0792,-0.0783,-0.0829,-0.0823,-0.0823,-0.0846,-0.0812,-0.0805,-0.0712,-0.0651,-0.0619,-0.0425,-0.0218,-0.0015,0.0221,0.035,0.0542,0.0619,0.0525,0.0553,0.0655,0.0645,0.0788,0.0791,0.0793,0.0796,0.0797,0,-0.084,-0.0876,-0.0904,-0.0938,-0.094,-0.0956,-0.0965,-0.0884,-0.0855,-0.0688,-0.0657,-0.0441,-0.0254,0.012,0.0361,0.0633,0.0629,0.0734,0.0704,0.0667,0.0691,0.0678,0.0665,0.0668,0.0669,0.0669,0.067,0,-0.0935,-0.0942,-0.0979,-0.1053,-0.1083,-0.1101,-0.1088,-0.108,-0.0959,-0.0848,-0.0657,-0.0488,-0.0133,0.0168,0.0508,0.0651,0.0684,0.0756,0.0751,0.0598,0.0566,0.0586,0.0575,0.0674,0.0674,0.0673,0.0673,0.0673,-0.0997,-0.1048,-0.1097,-0.1163,-0.1202,-0.1218,-0.1202,-0.1141,-0.1046,-0.0837,-0.0679,-0.0379,-0.0128,0.0373,0.059,0.078,0.0787,0.0826,0.0819,0.0813,0.0778,0.0753,0.089,0.0891,0.0891,0.0892,0.0892,0,-0.1068,-0.1119,-0.12,-0.1259,-0.1311,-0.1298,-0.126,-0.1207,-0.1058,-0.0821,-0.0579,-0.0282,0.0083,0.0345,0.0651,0.0848,0.0799,0.0868,0.0755,0.075,0.0745,0.0701,0.0796,0.0797,0.0797,0.0798,0,0,-0.1106,-0.1197,-0.1238,-0.1337,-0.1369,-0.136,-0.1317,-0.125,-0.1066,-0.0788,-0.053,-0.0208,0.0109,0.0306,0.0521,0.0674,0.0664,0.0681,0.0735,0.0569,0.0563,0.0696,0.0622,0,0,0,0,0]}],[{"header":{"parameterUnit":"m.s-1","parameterCategory":2,"la1":30.2991,"la2":30.254,"lo1":-89.0895,"lo2":-89.0444,"dy":0.0017,"dx":0.0017,"nx":28,"ny":28,"refTime":"2025-04-17T21:00:00:Z","depth":"4","parameterNumber":2,"parameterNumberName":"U-component_of_CURRENTS"},"data":[0,0,0,0,0,0,0,0,0,0,0,0,0,0,0,0,0,0,0,0,0,0,0,0,0,0,0,0,0,0,0,0,0,0,0,0,0,0,0,0,0,0,0,0,0,0,0,0,0,0,0,0,0,0,0,0,0,0,-0.1721,-0.1722,0,-0.1804,-0.1805,-0.1805,-0.1848,-0.1848,-0.1848,-0.1849,-0.1918,-0.192,-0.1922,0,0,0,0,0,0,0,0,0,0,0,0,0,-0.1601,-0.1603,-0.1721,-0.1722,-0.1723,-0.1804,-0.1805,-0.1806,-0.1848,-0.1848,-0.1848,-0.1849,-0.1918,-0.192,-0.1922,0,0,0,0,0,0,0,0,0,0,0,0,0,-0.1664,-0.1604,-0.172,-0.1755,-0.1759,-0.1804,-0.1805,-0.1806,-0.1848,-0.1848,-0.1848,-0.1849,-0.1917,-0.192,-0.1922,-0.1932,0,0,-0.193,-0.1931,0,0,0,0,0,0,0,0,-0.166,-0.1668,-0.1749,-0.1753,-0.1757,-0.1817,-0.1788,-0.1848,-0.1848,-0.1812,-0.1849,-0.1849,-0.1884,-0.1889,-0.1902,-0.1935,-0.1938,-0.193,-0.1931,-0.1932,-0.1933,0,0,0,0,0,0,0,-0.1656,-0.1665,-0.1752,-0.175,-0.1755,-0.1768,-0.1777,-0.18,-0.1844,-0.1815,-0.1819,-0.1831,-0.1886,-0.19,-0.1904,-0.1939,-0.193,-0.1932,-0.1934,-0.1935,-0.2071,-0.2073,0,0,0,0,0,0,-0.1649,-0.1661,-0.1749,-0.1754,-0.1711,-0.177,-0.178,-0.1796,-0.1844,-0.1852,-0.1831,-0.1833,-0.1895,-0.1901,-0.1907,-0.1994,-0.1932,-0.1935,-0.1936,-0.2069,-0.2071,-0.2074,0,0,0,0,0,0,-0.1646,-0.1656,-0.1746,-0.171,-0.1723,-0.1772,-0.179,-0.1798,-0.184,-0.1856,-0.1864,-0.1868,-0.1896,-0.1903,-0.1961,-0.1994,-0.1936,-0.1938,-0.2066,-0.207,-0.2072,-0.2122,0,0,0,0,0,0,-0.1642,-0.1655,-0.1678,-0.171,-0.1725,-0.1795,-0.179,-0.1799,-0.1846,-0.1851,-0.1891,-0.1896,-0.1896,-0.1957,-0.1963,-0.1997,-0.194,-0.2064,-0.2068,-0.2071,-0.2118,-0.2127,-0.2134,0,0,0,0,0,-0.1638,-0.1665,-0.1679,-0.169,-0.1751,-0.1797,-0.1806,-0.1839,-0.1848,-0.1877,-0.1907,-0.1896,-0.1986,-0.1961,-0.1968,-0.2003,-0.2062,-0.2067,-0.2071,-0.2114,-0.2125,-0.2134,0,0,0,0,0,0,-0.1627,-0.1673,-0.1689,-0.173,-0.1771,-0.1805,-0.1837,-0.1857,-0.1904,-0.1916,-0.1924,-0.1932,-0.1995,-0.1997,-0.1969,-0.2056,-0.2022,-0.2028,-0.2053,-0.2063,-0.2071,-0.2059,-0.1942,0,0,0,0,0,-0.1635,-0.1669,-0.1711,-0.1748,-0.1771,-0.1809,-0.1837,-0.1863,-0.1901,-0.1923,-0.1953,-0.1985,-0.2016,-0.2038,-0.2067,-0.2114,-0.2093,-0.2143,-0.2151,-0.2157,-0.2155,-0.2151,-0.2158,-0.2089,-0.2089,-0.2089,0,0,-0.164,-0.1671,-0.1692,-0.1749,-0.1782,-0.1827,-0.1828,-0.1883,-0.1925,-0.1923,-0.1998,-0.2019,-0.2037,-0.2092,-0.2119,-0.21,-0.2169,-0.2163,-0.2169,-0.2162,-0.2157,-0.2163,-0.2169,-0.2092,-0.2092,-0.2091,0,0,-0.1662,-0.1699,-0.1733,-0.1773,-0.1834,-0.186,-0.1882,-0.1939,-0.1974,-0.2041,-0.2049,-0.209,-0.2149,-0.2161,-0.2172,-0.2243,-0.2214,-0.2264,-0.2293,-0.2291,-0.2295,-0.2299,-0.2284,-0.2286,-0.2265,-0.2265,-0.2265,0,-0.1669,-0.1717,-0.1752,-0.1797,-0.1835,-0.1878,-0.1925,-0.1967,-0.2039,-0.2066,-0.2077,-0.2158,-0.2175,-0.2219,-0.2248,-0.2259,-0.225,-0.2251,-0.2298,-0.2302,-0.2305,-0.2287,-0.2289,-0.2268,-0.2268,-0.2268,-0.2267,0,-0.1706,-0.176,-0.1787,-0.1856,-0.1901,-0.1953,-0.2009,-0.2064,-0.2109,-0.2141,-0.2211,-0.2236,-0.2275,-0.2294,-0.2295,-0.2334,-0.2319,-0.2307,-0.2265,-0.2314,-0.2294,-0.2294,-0.2272,-0.2271,-0.227,-0.227,0,0,-0.168,-0.1791,-0.1805,-0.185,-0.1939,-0.1977,-0.2054,-0.2123,-0.2168,-0.2234,-0.228,-0.2337,-0.2345,-0.2358,-0.2365,-0.2368,-0.2385,-0.2355,-0.2353,-0.2324,-0.2375,-0.222,-0.2205,-0.2384,-0.2384,-0.2385,-0.2352,0,-0.1701,-0.1792,-0.1844,-0.1934,-0.1983,-0.2049,-0.2112,-0.2181,-0.2236,-0.2294,-0.232,-0.237,-0.2371,-0.2392,-0.2399,-0.2394,-0.239,-0.2395,-0.2345,-0.2343,-0.2186,-0.2201,-0.2386,-0.2352,-0.2352,-0.2352,-0.2352,0,-0.171,-0.1775,-0.1866,-0.1975,-0.2002,-0.2064,-0.2162,-0.2225,-0.2304,-0.2345,-0.239,-0.2411,-0.2442,-0.2428,-0.2429,-0.2435,-0.2412,-0.2396,-0.2394,-0.2227,-0.2188,-0.2295,-0.2353,-0.2353,-0.2353,-0.2353,-0.2353,0,-0.1661,-0.1784,-0.1859,-0.19,-0.2027,-0.2082,-0.215,-0.2241,-0.2293,-0.2374,-0.2408,-0.2446,-0.2466,-0.2454,-0.243,-0.2437,-0.2407,-0.2406,-0.2239,-0.2228,-0.2356,-0.2352,-0.239,-0.239,-0.239,-0.239,-0.239,0,-0.1644,-0.1708,-0.1849,-0.1891,-0.1976,-0.2069,-0.2156,-0.2226,-0.2315,-0.2357,-0.2427,-0.244,-0.2475,-0.2463,-0.2436,-0.2326,-0.2408,-0.2234,-0.2204,-0.238,-0.238,-0.2356,-0.2353,-0.2389,-0.2389,-0.239,-0.239,0,-0.1575,-0.1672,-0.1765,-0.1911,-0.1958,-0.2018,-0.2158,-0.2203,-0.2304,-0.2357,-0.2382,-0.2444,-0.2416,-0.2419,-0.2388,-0.2308,-0.2236,-0.2177,-0.2358,-0.2341,-0.2061,-0.2062,-0.1984,-0.1978,-0.1973,-0.1969,-0.1965,0,-0.1545,-0.159,-0.1758,-0.1805,-0.1878,-0.1983,-0.2042,-0.2178,-0.2218,-0.2329,-0.2326,-0.2351,-0.2366,-0.2183,-0.2216,-0.2131,-0.2105,-0.2059,-0.2063,-0.2038,-0.2018,-0.2026,-0.2033,-0.1957,-0.1956,-0.1955,-0.1954,0,-0.1477,-0.1553,-0.1625,-0.1723,-0.1804,-0.1886,-0.1983,-0.1998,-0.2127,-0.2246,-0.2193,-0.2154,-0.2114,-0.2064,-0.2006,-0.1954,-0.2085,-0.2006,-0.2017,-0.2021,-0.2005,-0.1992,-0.2004,-0.1936,-0.1939,-0.194,-0.1941,0,-0.1414,-0.1445,-0.154,-0.1607,-0.1703,-0.1737,-0.1819,-0.1849,-0.1905,-0.203,-0.2003,-0.2023,-0.2087,-0.197,-0.1922,-0.185,-0.1824,-0.1763,-0.1786,-0.1806,-0.176,-0.1714,-0.1517,0,0,0,0,0,-0.1332,-0.1348,-0.1408,-0.147,-0.1556,-0.1598,-0.1743,-0.1823,-0.1954,-0.1861,-0.1925,-0.1873,-0.1788,-0.1803,-0.1685,-0.1846,-0.1838,-0.1704,-0.1784,-0.184,-0.186,-0.1822,0,0,0,0,0,0,-0.1275,-0.1329,-0.1357,-0.1328,-0.1323,-0.1397,-0.1474,-0.1574,-0.154,-0.1673,-0.163,-0.1731,-0.1673,-0.1792,-0.1625,-0.1631,-0.164,-0.1733,-0.1728,-0.1829,-0.1847,-0.1863,-0.1831,0,0,0,0,0]},{"header":{"parameterUnit":"m.s-1","parameterCategory":2,"la1":30.2991,"la2":30.254,"lo1":-89.0895,"lo2":-89.0444,"dy":0.0017,"dx":0.0017,"nx":28,"ny":28,"refTime":"2025-04-17T21:00:00:Z","depth":"4","parameterNumber":3,"parameterNumberName":"V-component_of_CURRENTS"},"data":[0,0,0,0,0,0,0,0,0,0,0,0,0,0,0,0,0,0,0,0,0,0,0,0,0,0,0,0,0,0,0,0,0,0,0,0,0,0,0,0,0,0,0,0,0,0,0,0,0,0,0,0,0,0,0,0,0,0,-0.0207,-0.0206,0,-0.0148,-0.0148,-0.0147,-0.0099,-0.0099,-0.0099,-0.0099,0.0003,0.0006,0.0008,0,0,0,0,0,0,0,0,0,0,0,0,0,-0.0231,-0.0231,-0.0207,-0.0206,-0.0206,-0.0149,-0.0148,-0.0147,-0.01,-0.0099,-0.0099,-0.0098,0.0002,0.0005,0.0008,0,0,0,0,0,0,0,0,0,0,0,0,0,-0.0199,-0.0231,-0.0207,-0.0177,-0.0174,-0.0149,-0.0147,-0.0146,-0.01,-0.0099,-0.0099,-0.0098,0.0001,0.0005,0.0009,0.0022,0,0,0.002,0.0021,0,0,0,0,0,0,0,0,-0.0201,-0.0198,-0.0182,-0.0179,-0.0175,-0.0132,-0.0119,-0.0089,-0.01,-0.0126,-0.0099,-0.0098,-0.004,-0.0033,-0.0021,0.0027,0.0031,0.002,0.0022,0.0024,0.0025,0,0,0,0,0,0,0,-0.0204,-0.02,-0.0182,-0.0181,-0.0177,-0.015,-0.0146,-0.0113,-0.0084,-0.0123,-0.012,-0.0117,-0.0037,-0.0024,-0.0018,0.0033,0.002,0.0023,0.0025,0.0027,0.0118,0.0118,0,0,0,0,0,0,-0.0218,-0.0203,-0.0183,-0.018,-0.019,-0.0151,-0.0145,-0.0145,-0.0085,-0.0076,-0.0118,-0.0115,-0.0031,-0.0022,-0.0014,0.0016,0.0024,0.0027,0.0029,0.0118,0.0118,0.0118,0,0,0,0,0,0,-0.0219,-0.0217,-0.0186,-0.0191,-0.0186,-0.0151,-0.0151,-0.0144,-0.0131,-0.0081,-0.0071,-0.0112,-0.003,-0.0019,0.0016,0.002,0.0029,0.0032,0.0117,0.0118,0.0118,0.0068,0,0,0,0,0,0,-0.022,-0.0217,-0.0225,-0.0193,-0.0186,-0.0178,-0.0151,-0.0143,-0.013,-0.0127,-0.0073,-0.0063,-0.0029,0.001,0.002,0.0025,0.0035,0.0117,0.0118,0.0118,0.007,0.0067,0.0065,0,0,0,0,0,-0.0221,-0.0235,-0.0225,-0.0223,-0.0196,-0.0179,-0.0173,-0.0145,-0.0131,-0.013,-0.0089,-0.0064,0.002,0.0013,0.0024,0.0031,0.0117,0.0118,0.0118,0.0071,0.0068,0.0065,0,0,0,0,0,0,-0.0251,-0.0231,-0.022,-0.0228,-0.0208,-0.0172,-0.0172,-0.015,-0.0118,-0.0113,-0.0063,-0.005,-0.0018,0.0013,0.0004,0.0059,0.0073,0.0076,0.0034,0.0031,0.0029,0.0023,0.0038,0,0,0,0,0,-0.0262,-0.0267,-0.024,-0.0247,-0.024,-0.0206,-0.0196,-0.0176,-0.0144,-0.0129,-0.0091,-0.0047,-0.0008,0.0016,0.0051,0.008,0.0119,0.0092,0.009,0.0087,0.0091,0.0152,0.0155,0.012,0.012,0.012,0,0,-0.0278,-0.0267,-0.027,-0.0254,-0.0236,-0.023,-0.0199,-0.0189,-0.0176,-0.0123,-0.0098,-0.0058,-0.0003,0.003,0.0047,0.0057,0.0116,0.0088,0.0085,0.009,0.0153,0.0156,0.0159,0.012,0.012,0.012,0,0,-0.0309,-0.03,-0.0312,-0.0298,-0.0277,-0.0254,-0.0254,-0.0219,-0.0197,-0.017,-0.0125,-0.0082,-0.0031,0.0016,0.0046,0.0052,0.0097,0.006,0.0048,0.0107,0.011,0.0114,0.0157,0.0165,0.0063,0.0063,0.0063,0,-0.0329,-0.0337,-0.0313,-0.0316,-0.0308,-0.0268,-0.0272,-0.0245,-0.0202,-0.0179,-0.017,-0.0074,-0.0033,0.0027,0.0028,0.0047,0.0082,0.0052,0.0103,0.0107,0.0112,0.0156,0.0166,0.0061,0.0061,0.0061,0.0062,0,-0.0361,-0.0367,-0.0373,-0.0362,-0.035,-0.0349,-0.031,-0.029,-0.026,-0.0223,-0.0167,-0.0106,-0.0046,-0.0027,0.0003,0.0057,0.0071,0.0088,0.0107,0.0112,0.0159,0.0169,0.0057,0.0058,0.0059,0.006,0,0,-0.0409,-0.0399,-0.0402,-0.0403,-0.0374,-0.0368,-0.0346,-0.0309,-0.0286,-0.0236,-0.0197,-0.0125,-0.0085,-0.0048,-0.0,0.0053,0.0108,0.0078,0.0082,0.0115,0.0229,0.0197,0.0206,0.0133,0.0135,0.0136,0.0246,0,-0.0441,-0.0463,-0.0443,-0.0456,-0.046,-0.0416,-0.0399,-0.0356,-0.0309,-0.0261,-0.018,-0.013,-0.0094,-0.0066,-0.0006,0.008,0.0135,0.0076,0.0226,0.023,0.0196,0.0217,0.0142,0.0254,0.0256,0.0258,0.0259,0,-0.0479,-0.0487,-0.0512,-0.0498,-0.0495,-0.0496,-0.0455,-0.0432,-0.0349,-0.0309,-0.0235,-0.017,-0.008,-0.0057,0.0099,0.0058,0.0138,0.0204,0.0211,0.0207,0.0218,0.0253,0.0279,0.0277,0.0276,0.0275,0.0273,0,-0.0526,-0.0532,-0.0556,-0.0553,-0.0532,-0.0532,-0.0516,-0.0451,-0.0425,-0.0338,-0.0303,-0.0187,-0.0129,-0.001,0.0123,0.0115,0.029,0.0299,0.035,0.0349,0.0366,0.0361,0.0412,0.0412,0.0412,0.0411,0.0411,0,-0.0564,-0.0584,-0.0585,-0.0599,-0.0622,-0.0584,-0.0584,-0.0546,-0.048,-0.044,-0.0335,-0.0273,-0.0115,0.0006,0.0123,0.0265,0.0295,0.0354,0.0379,0.0341,0.0332,0.0373,0.0367,0.0416,0.0415,0.0414,0.0413,0,-0.0612,-0.0612,-0.0643,-0.0644,-0.065,-0.0667,-0.0649,-0.0636,-0.0567,-0.0511,-0.0485,-0.0333,-0.0177,-0.0018,0.0181,0.0256,0.0399,0.0444,0.0385,0.0404,0.0419,0.0409,0.0511,0.0511,0.051,0.051,0.051,0,-0.0636,-0.066,-0.0695,-0.0724,-0.0732,-0.0749,-0.0755,-0.0696,-0.0666,-0.0539,-0.0506,-0.0351,-0.0238,0.0024,0.0179,0.0395,0.0421,0.0484,0.0457,0.0417,0.0432,0.0422,0.0413,0.051,0.051,0.051,0.051,0,-0.0686,-0.0706,-0.0732,-0.0798,-0.0827,-0.084,-0.0835,-0.0817,-0.0725,-0.0664,-0.0505,-0.0351,-0.0178,0.002,0.0182,0.0338,0.0435,0.0483,0.0484,0.046,0.0417,0.043,0.0421,0.051,0.051,0.051,0.051,0,-0.0725,-0.0761,-0.0809,-0.086,-0.0906,-0.0917,-0.09,-0.0833,-0.0784,-0.0622,-0.0572,-0.0358,-0.0226,-0.0007,0.0149,0.0287,0.0319,0.0351,0.0359,0.0362,0.0276,0.0197,0.025,0,0,0,0,0,-0.0759,-0.0806,-0.0865,-0.0917,-0.0963,-0.0985,-0.0946,-0.0905,-0.081,-0.0705,-0.0629,-0.0454,-0.0195,-0.0072,0.0062,0.0116,0.0312,0.0272,0.0345,0.0508,0.0508,0.0429,0,0,0,0,0,0,-0.0782,-0.0849,-0.0876,-0.0958,-0.1006,-0.1039,-0.1018,-0.0946,-0.0859,-0.0743,-0.0596,-0.0468,-0.0216,-0.0293,0.0041,0.0089,0.0146,0.0411,0.0413,0.0507,0.0508,0.0508,0.0427,0,0,0,0,0]}]]